Hondo, TX

11:31 PM CST on December 15, 2019 (GMT -0600)
Hondo Municipal

Weather History for KHDO - October, 2019

Change the Weather History Date:

Friday, October 25, 2019

  Actual Average Record
Temperature  
Mean Temperature 55 °F -  
Max Temperature 66 °F 78 °F 95 °F (2010)
Min Temperature 44 °F 56 °F 34 °F (2005)
Degree Days  
Heating Degree Days 10    
Growing Degree Days 5 (Base 50)    
Moisture  
Dew Point 37 °F    
Average Humidity 57    
Maximum Humidity 77    
Minimum Humidity 34    
Precipitation  
Precipitation 0.02 in - - ()
Sea Level Pressure  
Sea Level Pressure 30.11 in    
Wind  
Wind Speed 19 mph (NNW)    
Max Wind Speed 26 mph    
Max Gust Speed 40 mph    
Visibility 10 miles    
Events      
Averages and records for this station are not official NWS values.
T = Trace of Precipitation, MM = Missing Value Source: NWS Daily Summary

Daily Weather History Graph

Daily Weather History Graph

Search for Another Location

Airport or City:

Astronomy

Oct. 25, 2019 Rise Set
Actual Time 7:44 AM CDT 6:56 PM CDT
Civil Twilight 7:20 AM CDT 7:20 PM CDT
Nautical Twilight 6:52 AM CDT 7:48 PM CDT
Astronomical Twilight 6:24 AM CDT 8:16 PM CDT
Moon 4:50 AM CDT (10/25) 5:41 PM CDT (10/25)
Length of Visible Light 12h 00m
Length of Day
11h 12m
Waning Crescent, 9% of the Moon is Illuminated
Oct 25
Waning Crescent
Oct 27
New
Nov 4
First Quarter
Nov 12
Full
Nov 19
Last Quarter

Hourly Weather History & Observations

Time (CDT) Temp. Dew Point Humidity Pressure Visibility Wind Dir Wind Speed Gust Speed Precip Events Conditions
12:51 AM 46.9 °F - N/A% 30.09 in 10.0 mi North - - 0.02 in   Overcast
1:51 AM 46.9 °F - N/A% 30.10 in 10.0 mi North - - N/A   Overcast
2:51 AM 46.9 °F 39.9 °F 77% 30.09 in 10.0 mi North - - N/A   Overcast
3:51 AM 46.0 °F 39.0 °F 76% 30.09 in 10.0 mi North - - N/A   Mostly Cloudy
4:51 AM 46.0 °F 37.0 °F 71% 30.07 in 10.0 mi North - - 0.00 in   Overcast
5:51 AM 44.1 °F 37.0 °F 76% 30.11 in 10.0 mi North - - 0.00 in   Mostly Cloudy
6:51 AM 44.1 °F 36.0 °F 73% 30.11 in 10.0 mi North - - N/A   Scattered Clouds
7:51 AM 44.1 °F 36.0 °F 73% 30.14 in 10.0 mi North - - N/A   Clear
8:51 AM 46.0 °F 36.0 °F 68% 30.17 in 10.0 mi North - - N/A   Clear
9:51 AM 50.0 °F 37.0 °F 61% 30.19 in 10.0 mi North 24.2 mph 40.3 mph N/A   Clear
10:51 AM 53.1 °F 37.9 °F 57% 30.19 in 10.0 mi NNW 26.5 mph 35.7 mph N/A   Clear
11:51 AM 57.0 °F 37.9 °F 49% 30.19 in 10.0 mi NNW 26.5 mph 35.7 mph N/A   Clear
12:51 PM 61.0 °F 39.0 °F 44% 30.16 in 10.0 mi NNW 20.7 mph - N/A   Clear
1:51 PM 63.0 °F 39.0 °F 41% 30.12 in 10.0 mi NNW 23.0 mph 29.9 mph N/A   Clear
2:51 PM 64.9 °F 37.9 °F 37% 30.09 in 10.0 mi NNW 17.3 mph 25.3 mph N/A   Clear
3:51 PM 66.0 °F 37.9 °F 36% 30.07 in 10.0 mi North 13.8 mph 27.6 mph N/A   Clear
4:51 PM 64.9 °F 36.0 °F 34% 30.06 in 10.0 mi NNW 23.0 mph 29.9 mph N/A   Clear
5:51 PM 64.0 °F 35.1 °F 34% 30.06 in 10.0 mi NNW 19.6 mph 24.2 mph N/A   Clear
6:51 PM 61.0 °F 36.0 °F 39% 30.06 in 10.0 mi NNW 12.7 mph - N/A   Clear
7:51 PM 54.0 °F 37.9 °F 55% 30.08 in 10.0 mi North 8.1 mph - N/A   Clear
8:51 PM 51.1 °F 39.0 °F 63% 30.08 in 10.0 mi North 3.5 mph - N/A   Clear
9:51 PM 48.0 °F 37.9 °F 68% 30.09 in 9.0 mi NNW 6.9 mph - N/A   Clear
10:51 PM 48.0 °F 37.0 °F 66% 30.10 in 10.0 mi NNW 8.1 mph - N/A   Clear
11:51 PM 46.9 °F 35.1 °F 63% 30.09 in 10.0 mi NW 6.9 mph - N/A   Clear